Погода в Черноморце

Болгария     42°26′38″N   27°38′12″E
темп.,
°C
ветер,
м/с
пор.,
м/с
влажн.,
%
обл.,
%
осадки,
мм/ч
давл.,
гПа
погр.,
м
18 мая, вт
вт1800:00+17зюз5783100 0.5 1007145
03:00+17зсз5786100 0.9 1006206
06:00+16з558776 0.3 1006157
09:00+16зюз4483100 0.3 1009175
12:00+17зсз71171100 0.4 1010747
15:00+17зюз677078 0.5 1010287
18:00+18юз68714 0.2 1011224
21:00+18з712620 0.3 1012687
19 мая, ср
ср1900:00+16зюз612700 0.0 1013431
03:00+14з612770 0.0 1013375
06:00+14зюз59782 0.0 1013269
09:00+15з68720 0.0 1014321
12:00+19з23695 0.0 101342
15:00+19вюв677057 0.0 1012172
18:00+19вюв677721 0.0 1010123
21:00+18ююв59757 0.0 1010125
20 мая, чт
чт2000:00+18ююв61172100 0.0 1009201
03:00+17ююз226989 0.0 100871
06:00+17зсз4573100 0.0 1007146
09:00+17сз457762 0.0 1008365
12:00+18ссз787280 0.0 1009635
15:00+17ссз101068100 0.0 1010932
18:00+15сз71066100 0.0 1011786
21:00+14зсз477297 0.1 1012443
21 мая, пт
пт2100:00+14з337499 0.1 1012269
03:00+14ссз3672100 0.1 1013565
06:00+13сз4772100 0.0 1012510
09:00+13зсз4673100 0.1 1013544
12:00+14ссз5771100 0.1 1012791
15:00+15сз5767100 0.1 1012908
18:00+15сз81073100 0.1 1011574
21:00+15сз6876100 0.3 1012471
22 мая, сб
сб2200:00+15ссз7888100 2.1 1011347
03:00+15с81091100 9.5 1011666
06:00+14с111487100 10.9 1012697
09:00+14с101285100 13.8 1013659
12:00+15с71183100 4.6 1014886
15:00+16ссз91380100 6.1 1014843
18:00+18сз697485 0.6 1014475
21:00+18сз597573 0.6 1015279